Weather History for Roswell, NM

Change the Weather History Date:

Sunday, September 8, 2013

  Actual Average Record
Temperature  
Mean Temperature 80 °F 75 °F  
Max Temperature 93 °F 88 °F 99 °F (1988)
Min Temperature 67 °F 61 °F 48 °F (1968)
Degree Days  
Heating Degree Days 0 0  
Month to date heating degree days 0 0  
Since 1 July heating degree days 0 0  
Cooling Degree Days 15 10  
Month to date cooling degree days 126 86  
Year to date cooling degree days 1990 1610  
Growing Degree Days 30 (Base 50)    
Moisture  
Dew Point 55 °F    
Average Humidity 54    
Maximum Humidity 84    
Minimum Humidity 24    
Precipitation  
Precipitation 0.06 in 0.05 in 3.48 in (1899)
Month to date precipitation 0.06 0.44  
Year to date precipitation 4.66 9.37  
Sea Level Pressure  
Sea Level Pressure 29.83 in    
Wind  
Wind Speed 5 mph (South)    
Max Wind Speed 24 mph    
Max Gust Speed 31 mph    
Visibility 10 miles    
Events Rain    
T = Trace of Precipitation, MM = Missing Value Source: NWS Daily Summary

Daily Weather History Graph

Daily Weather History Graph

Search for Another Location

Airport:

Trip Planner

Search our weather history database for the weather conditions in past years. The results will help you decide how hot, cold, wet, or windy it might be!

Date:

Astronomy

Sep. 08, 2013 Rise Set
Actual Time 6:37 AM MDT 7:13 PM MDT
Civil Twilight 6:12 AM MDT 7:38 PM MDT
Nautical Twilight 5:42 AM MDT 8:07 PM MDT
Astronomical Twilight 5:12 AM MDT 8:37 PM MDT
Moon 9:44 AM MDT (9/8) 9:04 PM MDT (9/8)
Length of Visible Light 13h 26m
Length of Day
12h 36m
Waxing Crescent, 11% of the Moon is Illuminated
Sep 8
Waxing Crescent
Sep 12
First Quarter
Sep 19
Full
Sep 26
Last Quarter
Oct 4
New

Hourly Weather History & Observations

Time (MDT) Temp. Heat Index Dew Point Humidity Pressure Visibility Wind Dir Wind Speed Gust Speed Precip Events Conditions
12:51 AM 72.0 °F - 48.0 °F 43% 29.87 in 10.0 mi SW 4.6 mph - N/A   Clear
1:51 AM 73.0 °F - 48.0 °F 41% 29.86 in 10.0 mi Calm Calm - N/A   Clear
2:51 AM 72.0 °F - 48.0 °F 43% 29.86 in 10.0 mi Calm Calm - N/A   Clear
3:51 AM 69.1 °F - 48.9 °F 49% 29.86 in 10.0 mi Calm Calm - N/A   Clear
4:51 AM 69.1 °F - 51.1 °F 53% 29.86 in 10.0 mi Calm Calm - N/A   Clear
5:51 AM 68.0 °F - 50.0 °F 52% 29.86 in 10.0 mi Calm Calm - N/A   Clear
6:51 AM 66.9 °F - 48.0 °F 51% 29.88 in 10.0 mi West 3.5 mph - N/A   Clear
7:51 AM 71.1 °F - 48.9 °F 45% 29.88 in 10.0 mi Calm Calm - N/A   Clear
8:51 AM 75.9 °F - 51.1 °F 42% 29.90 in 10.0 mi Calm Calm - N/A   Clear
9:51 AM 80.1 °F - 52.0 °F 38% 29.88 in 10.0 mi Calm Calm - N/A   Clear
10:51 AM 84.0 °F 82.5 °F 53.1 °F 34% 29.87 in 10.0 mi Variable 4.6 mph - N/A   Clear
11:51 AM 87.1 °F 84.9 °F 53.1 °F 31% 29.84 in 10.0 mi South 9.2 mph - N/A   Clear
12:51 PM 90.0 °F 87.5 °F 53.1 °F 28% 29.83 in 10.0 mi SSE 11.5 mph - N/A   Clear
1:51 PM 91.0 °F - 52.0 °F 26% 29.80 in 10.0 mi SE 10.4 mph 19.6 mph N/A   Clear
2:51 PM 93.0 °F - 51.1 °F 24% 29.76 in 10.0 mi South 11.5 mph 18.4 mph N/A   Scattered Clouds
3:51 PM 89.1 °F - 52.0 °F 28% 29.75 in 10.0 mi Calm Calm - N/A   Scattered Clouds
4:42 PM 78.8 °F - 62.6 °F 57% 29.98 in 6.0 mi SSE 23.0 mph 31.1 mph 0.00 in Rain Light Rain
4:51 PM 75.0 °F - 64.0 °F 69% 29.81 in 5.0 mi SE 23.0 mph 29.9 mph 0.00 in Rain Light Rain
5:51 PM 75.0 °F - 64.0 °F 69% 29.78 in 10.0 mi SSW 8.1 mph - 0.06 in Rain Light Rain
6:51 PM 77.0 °F - 64.0 °F 64% 29.77 in 10.0 mi SSW 5.8 mph - 0.00 in   Clear
7:51 PM 75.9 °F - 64.9 °F 69% 29.77 in 10.0 mi SSW 3.5 mph - N/A   Clear
8:51 PM 73.0 °F - 64.0 °F 73% 29.78 in 10.0 mi South 4.6 mph - N/A   Clear
9:51 PM 70.0 °F - 64.0 °F 81% 29.81 in 7.0 mi SE 3.5 mph - N/A   Clear
10:51 PM 70.0 °F - 62.1 °F 76% 29.81 in 10.0 mi SSE 3.5 mph - N/A   Clear
11:51 PM 68.0 °F - 61.0 °F 78% 29.81 in 10.0 mi South 4.6 mph - N/A   Clear